This demonstration page uses our WeatherBlox Daily Observations layout. Learn more.

Left ArrowRight Arrow

39.01783, -85.05884

Hourly Observations for March 6, 2021

Temp ( °F °C ) Dew Point ( °F °C ) Humidity (%) Winds ( mph kmh ) Pressure ( in mb ) Visibility ( mi km ) Precip ( " mm )
12:52 am 00:52 Clear 34 1.1 19 -7.2 54 54 NNW 8 13 30.26 1025 10 16.0934 0 0
1:52 am 01:52 Mostly Clear 32 0 19 -7.2 59 59 NNW 9 15 30.28 1025 10 16.0934 0 0
2:52 am 02:52 Clear 30 -1.1 18 -7.8 61 61 NNW 7 11 30.28 1025 10 16.0934 0 0
3:52 am 03:52 Clear 29 -1.7 18 -7.8 63 63 NNW 8 13 30.28 1025 10 16.0934 0 0
4:52 am 04:52 Clear 28 -2.2 18 -7.8 66 66 NNW 8 13 30.28 1026 10 16.0934 0 0
5:52 am 05:52 Clear 27 -2.8 18 -7.8 69 69 NNW 7 11 30.3 1026 10 16.0934 0 0
6:52 am 06:52 Clear 28 -2.2 18 -7.8 66 66 N 6 9 30.31 1027 10 16.0934 0 0
7:52 am 07:52 Sunny 30 -1.1 18 -7.8 61 61 N 7 11 30.33 1027 10 16.0934 0 0
8:52 am 08:52 Mostly Sunny 33 0.6 18 -7.8 54 54 N 10 17 30.35 1028 10 16.0934 0 0
9:52 am 09:52 Mostly Sunny 36 2.2 16 -8.9 44 44 N 7 11 30.35 1028 10 16.0934 0 0
10:52 am 10:52 Mostly Sunny 39 3.9 16 -8.9 39 39 NNE 8 13 30.35 1028 10 16.0934 0 0
11:52 am 11:52 Partly Cloudy 42 5.6 16 -8.9 35 35 N 12 19 30.34 1028 10 16.0934 0 0
12:52 pm 12:52 Mostly Sunny 44 6.7 17 -8.3 34 34 VRB 3 6 30.34 1027 10 16.0934 0 0
1:52 pm 13:52 Mostly Sunny 46 7.8 17 -8.3 31 31 WNW 13 20 30.31 1027 10 16.0934 0 0
2:52 pm 14:52 Mostly Sunny 47 8.3 16 -8.9 29 29 N 10 17 30.3 1026 10 16.0934 0 0
3:52 pm 15:52 Mostly Sunny 46 7.8 17 -8.3 31 31 NNW 6 9 30.29 1026 10 16.0934 0 0
4:52 pm 16:52 Mostly Sunny 47 8.3 15 -9.4 28 28 N 9 15 30.29 1026 10 16.0934 0 0
5:52 pm 17:52 Sunny 45 7.2 15 -9.4 30 30 N 7 11 30.28 1026 10 16.0934 0 0
6:52 pm 18:52 Clear 41 5 16 -8.9 36 36 WNW 10 17 30.29 1026 10 16.0934 0 0
7:52 pm 19:52 Clear 38 3.3 16 -8.9 41 41 NW 8 13 30.29 1026 10 16.0934 0 0
8:52 pm 20:52 Clear 38 3.3 15 -9.4 39 39 NNW 6 9 30.3 1026 10 16.0934 0 0
9:52 pm 21:52 Clear 37 2.8 15 -9.4 41 41 Calm 30.3 1026 10 16.0934 0 0
10:52 pm 22:52 Clear 32 0 16 -8.9 52 52 Calm 30.29 1026 10 16.0934 0 0
11:52 pm 23:52 Clear 31 -0.6 18 -7.8 59 59 Calm 30.28 1025 10 16.0934 0 0

Powered by AerisWeather